[[{"header":{"parameterUnit":"m.s-1","parameterCategory":1,"la1":30.2991,"la2":30.254,"lo1":-89.0895,"lo2":-89.0444,"dy":0.0017,"dx":0.0017,"nx":28,"ny":28,"refTime":"2024-03-30T21:00:00:Z","depth":0,"parameterNumber":2,"parameterNumberName":"U-component_of_WINDS"},"data":[0,0,0,0,0,0,0,0,0,0,0,0,0,0,0,0,0,0,0,0,0,0,0,0,0,0,0,0,0,0,0,0,0,0,0,0,0,0,0,0,0,0,0,0,0,0,0,0,0,0,0,0,0,0,0,0,0,0,-2.3575,-2.3575,0,-2.3594,-2.3594,-2.3594,-2.3581,-2.3581,-2.358,-2.3579,-2.3598,-2.3599,-2.36,0,0,0,0,0,0,0,0,0,0,0,0,0,-2.3527,-2.3528,-2.3575,-2.3575,-2.3576,-2.3594,-2.3594,-2.3594,-2.3581,-2.3581,-2.358,-2.3579,-2.3597,-2.3598,-2.36,0,0,0,0,0,0,0,0,0,0,0,0,0,-2.3547,-2.3528,-2.3575,-2.3571,-2.3571,-2.3594,-2.3594,-2.3594,-2.3581,-2.3581,-2.358,-2.3579,-2.3597,-2.3598,-2.36,-2.3627,0,0,-2.3605,-2.3605,0,0,0,0,0,0,0,0,-2.3546,-2.3549,-2.3572,-2.3572,-2.3571,-2.3584,-2.3584,-2.3605,-2.3582,-2.3577,-2.3579,-2.3578,-2.3594,-2.3596,-2.3601,-2.3628,-2.3629,-2.3605,-2.3606,-2.3606,-2.3607,0,0,0,0,0,0,0,-2.3544,-2.3548,-2.3582,-2.3572,-2.3572,-2.3568,-2.357,-2.3588,-2.359,-2.3578,-2.3577,-2.3579,-2.3594,-2.36,-2.3601,-2.3629,-2.3605,-2.3606,-2.3607,-2.3608,-2.3678,-2.3679,0,0,0,0,0,0,-2.3544,-2.3547,-2.3582,-2.3583,-2.3556,-2.357,-2.3572,-2.3581,-2.359,-2.3591,-2.358,-2.3579,-2.3597,-2.3599,-2.3602,-2.3633,-2.3606,-2.3608,-2.3609,-2.3677,-2.3678,-2.3679,0,0,0,0,0,0,-2.3543,-2.3547,-2.3581,-2.3565,-2.3569,-2.3572,-2.3582,-2.3582,-2.3588,-2.3592,-2.3592,-2.3586,-2.3597,-2.36,-2.3621,-2.3634,-2.3608,-2.361,-2.3676,-2.3677,-2.3679,-2.3696,0,0,0,0,0,0,-2.3541,-2.3547,-2.3557,-2.3565,-2.357,-2.36,-2.3583,-2.3583,-2.3591,-2.3589,-2.3597,-2.3598,-2.3596,-2.3618,-2.3622,-2.3635,-2.3611,-2.3675,-2.3677,-2.3678,-2.3695,-2.3698,-2.3701,0,0,0,0,0,-2.354,-2.3561,-2.3558,-2.3562,-2.3583,-2.3601,-2.3603,-2.3601,-2.3592,-2.3602,-2.3605,-2.3597,-2.3632,-2.3621,-2.3625,-2.3638,-2.3674,-2.3676,-2.3678,-2.3693,-2.3698,-2.3701,0,0,0,0,0,0,-2.3554,-2.3562,-2.3558,-2.3583,-2.3591,-2.3598,-2.3611,-2.3606,-2.3617,-2.3615,-2.3612,-2.3614,-2.3636,-2.364,-2.3627,-2.3665,-2.3651,-2.3654,-2.3661,-2.3666,-2.3669,-2.3667,-2.3612,0,0,0,0,0,-2.356,-2.3574,-2.3581,-2.3602,-2.3606,-2.3608,-2.3616,-2.3614,-2.3622,-2.3625,-2.363,-2.3638,-2.365,-2.3658,-2.367,-2.3696,-2.3697,-2.3707,-2.3711,-2.3713,-2.3715,-2.3728,-2.3733,-2.3686,-2.3686,-2.3686,0,0,-2.3573,-2.3579,-2.3588,-2.3605,-2.3611,-2.3625,-2.3611,-2.3627,-2.3637,-2.3628,-2.3647,-2.3651,-2.366,-2.3683,-2.3693,-2.3686,-2.3729,-2.3716,-2.3718,-2.3719,-2.3731,-2.3735,-2.3739,-2.3688,-2.3687,-2.3687,0,0,-2.3603,-2.361,-2.3627,-2.3634,-2.3644,-2.3645,-2.3649,-2.3657,-2.3659,-2.3679,-2.3673,-2.3685,-2.3707,-2.3713,-2.3719,-2.3752,-2.3745,-2.3756,-2.3773,-2.3785,-2.3789,-2.3792,-2.3803,-2.3807,-2.3759,-2.3759,-2.3759,0,-2.3617,-2.3638,-2.3637,-2.3653,-2.3661,-2.3654,-2.3671,-2.3678,-2.3691,-2.3696,-2.3689,-2.3716,-2.3721,-2.3745,-2.3753,-2.3759,-2.3763,-2.3754,-2.3789,-2.3792,-2.3795,-2.3805,-2.3809,-2.376,-2.376,-2.376,-2.3759,0,-2.3655,-2.367,-2.3683,-2.3696,-2.3705,-2.3722,-2.3723,-2.3732,-2.373,-2.3732,-2.3752,-2.3759,-2.3771,-2.3777,-2.3775,-2.3801,-2.3796,-2.3789,-2.3775,-2.38,-2.381,-2.3813,-2.3761,-2.3761,-2.3761,-2.376,0,0,-2.3693,-2.3705,-2.371,-2.3715,-2.3726,-2.3737,-2.3754,-2.3767,-2.3774,-2.3784,-2.3797,-2.3816,-2.3809,-2.3816,-2.3815,-2.3826,-2.385,-2.3817,-2.3817,-2.3822,-2.3878,-2.3882,-2.3887,-2.3847,-2.3848,-2.3848,-2.3877,0,-2.3722,-2.3751,-2.3751,-2.3777,-2.379,-2.3785,-2.3799,-2.3807,-2.3809,-2.3821,-2.3823,-2.3836,-2.3827,-2.3831,-2.3842,-2.3845,-2.3861,-2.3843,-2.3858,-2.3858,-2.3854,-2.3892,-2.3896,-2.3922,-2.388,-2.3881,-2.3882,0,-2.3759,-2.377,-2.3798,-2.3806,-2.3812,-2.3825,-2.3836,-2.3848,-2.3856,-2.3857,-2.3866,-2.3862,-2.3879,-2.3866,-2.3888,-2.3876,-2.3882,-2.3884,-2.3885,-2.3885,-2.387,-2.3891,-2.3931,-2.3934,-2.3887,-2.3887,-2.3887,0,-2.3782,-2.3804,-2.3823,-2.3829,-2.3839,-2.3848,-2.3853,-2.3861,-2.3869,-2.3879,-2.3884,-2.3896,-2.3902,-2.3911,-2.3911,-2.3902,-2.3933,-2.3921,-2.3934,-2.3933,-2.3939,-2.3938,-2.3979,-2.3946,-2.3946,-2.3946,-2.3946,0,-2.3814,-2.3831,-2.3834,-2.3845,-2.3864,-2.3864,-2.3883,-2.3886,-2.3894,-2.3906,-2.3902,-2.3913,-2.3913,-2.3925,-2.3925,-2.3943,-2.3946,-2.3947,-2.3946,-2.3946,-2.3946,-2.3949,-2.3946,-2.3947,-2.3947,-2.3946,-2.3946,0,-2.3842,-2.3845,-2.3865,-2.3874,-2.3876,-2.389,-2.3897,-2.3908,-2.391,-2.3925,-2.3929,-2.3933,-2.3946,-2.3948,-2.3963,-2.3963,-2.3984,-2.3983,-2.3981,-2.398,-2.3992,-2.3991,-2.4035,-2.404,-2.4006,-2.4006,-2.4006,0,-2.3861,-2.3874,-2.3884,-2.3892,-2.3897,-2.391,-2.3918,-2.3919,-2.3927,-2.3938,-2.3947,-2.396,-2.3971,-2.3992,-2.3996,-2.4008,-2.4005,-2.402,-2.4007,-2.4006,-2.4004,-2.4002,-2.4003,-2.4022,-2.4022,-2.4023,-2.4023,0,-2.3894,-2.3895,-2.3907,-2.3919,-2.3928,-2.3938,-2.3947,-2.3954,-2.3955,-2.3965,-2.3979,-2.3987,-2.4003,-2.4015,-2.4027,-2.4031,-2.4027,-2.4028,-2.4031,-2.403,-2.4028,-2.4027,-2.3986,-2.4026,-2.4026,-2.4025,-2.4025,-2.4025,-2.3917,-2.3928,-2.3937,-2.395,-2.3957,-2.3965,-2.3976,-2.398,-2.3991,-2.4004,-2.4004,-2.4019,-2.4027,-2.4043,-2.4048,-2.4059,-2.4054,-2.406,-2.4061,-2.4061,-2.4062,-2.4028,-2.4062,-2.4062,-2.4062,-2.4062,-2.4061,0,-2.3949,-2.3955,-2.3967,-2.3979,-2.3989,-2.3986,-2.3995,-2.4004,-2.4017,-2.4025,-2.4036,-2.4051,-2.4063,-2.4069,-2.4081,-2.4088,-2.4087,-2.4091,-2.409,-2.4091,-2.4066,-2.4062,-2.4093,-2.4092,-2.4092,-2.4092,-2.4092,-2.4092,-2.3967,-2.3984,-2.3986,-2.4007,-2.4013,-2.4027,-2.4033,-2.4041,-2.4047,-2.4065,-2.4075,-2.4078,-2.4085,-2.4098,-2.4109,-2.411,-2.4114,-2.4119,-2.4119,-2.4096,-2.4093,-2.409,-2.4085,-2.412,-2.412,-2.4142,-2.4143,-2.4143]},{"header":{"parameterUnit":"m.s-1","parameterCategory":1,"la1":30.2991,"la2":30.254,"lo1":-89.0895,"lo2":-89.0444,"dy":0.0017,"dx":0.0017,"nx":28,"ny":28,"refTime":"2024-03-30T21:00:00:Z","depth":0,"parameterNumber":3,"parameterNumberName":"V-component_of_WINDS"},"data":[0,0,0,0,0,0,0,0,0,0,0,0,0,0,0,0,0,0,0,0,0,0,0,0,0,0,0,0,0,0,0,0,0,0,0,0,0,0,0,0,0,0,0,0,0,0,0,0,0,0,0,0,0,0,0,0,0,0,4.0109,4.011,0,4.0215,4.0216,4.0217,4.0246,4.0245,4.0244,4.0244,4.0351,4.0354,4.0358,0,0,0,0,0,0,0,0,0,0,0,0,0,3.993,3.9933,4.0109,4.011,4.0111,4.0215,4.0216,4.0218,4.0246,4.0245,4.0244,4.0243,4.035,4.0354,4.0358,0,0,0,0,0,0,0,0,0,0,0,0,0,4.0019,3.9934,4.0109,4.0138,4.0142,4.0215,4.0216,4.0218,4.0246,4.0245,4.0244,4.0243,4.0348,4.0353,4.0358,4.0409,0,0,4.0374,4.0377,0,0,0,0,0,0,0,0,4.0014,4.0026,4.0132,4.0136,4.014,4.0216,4.0193,4.0282,4.0246,4.0206,4.0244,4.0243,4.0307,4.0315,4.0337,4.0415,4.0419,4.0375,4.0378,4.038,4.0382,0,0,0,0,0,0,0,4.0008,4.0021,4.0151,4.0134,4.0139,4.0146,4.0157,4.021,4.026,4.021,4.0212,4.0224,4.0309,4.0332,4.034,4.0421,4.0375,4.0379,4.0382,4.0384,4.0548,4.0549,0,0,0,0,0,0,3.9997,4.0016,4.0147,4.0154,4.0074,4.015,4.0163,4.0193,4.026,4.0269,4.0225,4.0225,4.0324,4.0334,4.0344,4.041,4.038,4.0385,4.0388,4.0547,4.0548,4.055,0,0,0,0,0,0,3.9993,4.0008,4.0143,4.0086,4.0103,4.0154,4.0187,4.0195,4.0219,4.0272,4.0281,4.024,4.0323,4.0337,4.0394,4.0414,4.0387,4.0392,4.0545,4.0547,4.0549,4.0542,0,0,0,0,0,0,3.9988,4.0007,4.0026,4.0086,4.0106,4.0191,4.0189,4.0198,4.0228,4.0229,4.0288,4.0297,4.0324,4.0386,4.0399,4.0421,4.0396,4.0544,4.0546,4.0549,4.054,4.0543,4.0545,0,0,0,0,0,3.9981,4.0019,4.0027,4.0043,4.0132,4.0192,4.0204,4.0235,4.0229,4.025,4.0284,4.0295,4.041,4.0392,4.0406,4.043,4.0543,4.0546,4.0548,4.0539,4.0543,4.0545,0,0,0,0,0,0,3.9959,4.0027,4.0037,4.0095,4.0138,4.0197,4.0224,4.0237,4.0282,4.0281,4.0317,4.033,4.0385,4.0413,4.0392,4.0484,4.0476,4.0482,4.0464,4.0468,4.047,4.0463,4.04,0,0,0,0,0,3.9961,4.0005,4.0062,4.0108,4.0129,4.0173,4.02,4.022,4.0266,4.0284,4.0322,4.0365,4.0412,4.0441,4.0486,4.0544,4.0559,4.0568,4.0571,4.0573,4.0578,4.0613,4.0619,4.0559,4.0559,4.0559,0,0,3.9966,4.0009,4.0033,4.0105,4.014,4.0185,4.0187,4.0234,4.0268,4.029,4.0348,4.0377,4.0428,4.0487,4.0515,4.0512,4.0597,4.0576,4.0577,4.0581,4.0616,4.0622,4.0627,4.0561,4.0561,4.056,0,0,3.9998,4.0033,4.0077,4.0113,4.0167,4.0196,4.0207,4.0264,4.0286,4.0344,4.0363,4.0403,4.0481,4.0518,4.0546,4.0594,4.0606,4.0608,4.0621,4.0655,4.066,4.0664,4.0683,4.0689,4.0612,4.0612,4.0612,0,3.9996,4.0065,4.0097,4.0144,4.0176,4.0199,4.0245,4.0278,4.0343,4.0365,4.0361,4.0462,4.0497,4.0566,4.0578,4.0599,4.0614,4.0601,4.0657,4.0661,4.0666,4.0684,4.0691,4.0612,4.0612,4.0612,4.0612,0,4.0062,4.0109,4.0137,4.0202,4.0237,4.0282,4.0322,4.0353,4.0371,4.0401,4.0461,4.0505,4.0561,4.0578,4.0595,4.065,4.0647,4.0649,4.0642,4.0671,4.0689,4.0696,4.0612,4.0612,4.0612,4.0612,0,0,4.0082,4.0166,4.0176,4.0206,4.0269,4.0306,4.0353,4.0409,4.0436,4.048,4.0522,4.0589,4.0592,4.0625,4.0646,4.0676,4.0714,4.0675,4.0677,4.0682,4.0779,4.0779,4.0786,4.0722,4.0723,4.0724,4.0776,0,4.0123,4.0208,4.024,4.0311,4.0356,4.038,4.0422,4.0465,4.0494,4.0537,4.0569,4.0617,4.0616,4.0637,4.0667,4.0703,4.0734,4.0699,4.0762,4.0763,4.075,4.0795,4.0794,4.0841,4.0783,4.0784,4.0785,0,4.0181,4.0229,4.0304,4.0364,4.0384,4.042,4.0475,4.0515,4.0565,4.0585,4.0622,4.0643,4.0694,4.0683,4.0755,4.073,4.0758,4.0779,4.0782,4.079,4.0777,4.0806,4.0856,4.0864,4.0796,4.0795,4.0794,0,4.0191,4.0274,4.033,4.0355,4.0425,4.0451,4.0481,4.053,4.0563,4.061,4.0632,4.0684,4.0713,4.0754,4.0788,4.0777,4.0858,4.0849,4.0876,4.0876,4.0893,4.0892,4.095,4.0908,4.0908,4.0908,4.0908,0,4.0235,4.028,4.0336,4.0371,4.0423,4.046,4.0511,4.0542,4.0586,4.0628,4.0652,4.0691,4.0733,4.0777,4.0804,4.0861,4.0873,4.0891,4.0898,4.089,4.0888,4.091,4.0908,4.091,4.0909,4.0909,4.0909,0,4.0255,4.0294,4.0357,4.0419,4.0436,4.0472,4.0525,4.056,4.0591,4.0644,4.0659,4.0707,4.0761,4.0799,4.0868,4.0886,4.0948,4.0954,4.0932,4.0936,4.0962,4.0959,4.1036,4.1049,4.0997,4.0998,4.0998,0,4.028,4.0316,4.0383,4.0413,4.0444,4.0492,4.0526,4.0563,4.0597,4.0658,4.0686,4.0742,4.0789,4.0874,4.0916,4.0969,4.0977,4.1001,4.0985,4.0977,4.098,4.0978,4.0983,4.1003,4.1004,4.1004,4.1004,0,4.0323,4.0341,4.0389,4.0444,4.0484,4.0529,4.0574,4.0598,4.0643,4.0681,4.0737,4.0773,4.0845,4.09,4.0958,4.099,4.1005,4.1009,4.1018,4.1011,4.0998,4.1008,4.094,4.1007,4.1007,4.1006,4.1006,4.1006,4.0348,4.0382,4.0435,4.0488,4.0527,4.0569,4.0606,4.0642,4.069,4.0752,4.0771,4.083,4.0881,4.0961,4.0993,4.104,4.1038,4.1051,4.1055,4.1058,4.106,4.0989,4.105,4.105,4.105,4.105,4.105,0,4.0394,4.0429,4.0478,4.0541,4.0584,4.0595,4.0646,4.0681,4.0733,4.0779,4.0825,4.0891,4.0946,4.0992,4.1049,4.1078,4.1087,4.1092,4.1091,4.1098,4.1056,4.1043,4.1084,4.1084,4.1084,4.1084,4.1084,4.1084,4.0422,4.0482,4.0506,4.0586,4.0621,4.0679,4.0708,4.0748,4.0785,4.0858,4.0904,4.0934,4.0981,4.1042,4.1093,4.1106,4.1126,4.113,4.1144,4.1105,4.1101,4.1097,4.1085,4.1134,4.1134,4.1183,4.1183,4.1184]}]]